Main page
METAR-TAF:

METAR-TAF

Airports :

Oil platform

Troll A, Norway

latitude: 60-38-42N, longitude: 3-43-29E, elevation: 20 m

Current weather observation

The report was made 30 minutes ago, at 20:50 UTC
Wind 15 kt from the West/Southwest
Temperature 10°C
Humidity 82%
Pressure 998 hPa
Visibility 10 km or more

METAR: ENQA 202050Z AUTO 24015KT 9999NDV OVC028/// 10/07 Q0998 W09/S7

Time: 23:20 (21:20 UTC)


TAF: missing

Weather observations and forecasts of more than 4000 airports (METAR and TAF reports).

The available stations are represented by yellow and red dots on the map.

Hover mouse over dot to see the name of the station.

Then click to see weather observations and forecasts.

To change the map : click on the green buttons with a black cross to zoom in, on the green button with a dash to zoom out, or on the green arrows for adjacent maps.


METAR-TAF: